Location: Agua de los Torres
(34.2437°N, 106.6625°W)
Time: 06:34:14
(UTC+00:00)

Daily predictions for brighter satellites

Satellite Brightness Start Highest point End
(mag) Time Altitude Azimuth Time Altitude Azimuth Time Altitude Azimuth
Cosmos 2237 Rocket 4.1 12:06:51 13° NNW 12:06:51 13° NNW 12:07:43 10° NNW
Cosmos 2278 Rocket 2.9 12:07:18 30° WSW 12:07:18 30° WSW 12:11:54 10° SSW
Cosmos 1943 Rocket 3.1 12:09:39 26° WSW 12:09:39 26° WSW 12:13:21 10° SSW
Cosmos 407 Rocket 4.3 12:13:58 28° WSW 12:13:58 28° WSW 12:17:59 10° SSW
Cosmos 1943 4.3 12:08:23 10° S 12:13:42 46° ESE 12:19:02 10° NE
Cosmos 1954 Rocket 3.9 12:08:57 10° NNW 12:14:09 90° E 12:19:17 10° SSE
USA 229 DEB 3.3 12:11:10 10° SW 12:16:49 61° WNW 12:23:06 10° NNE
USA 229 3.3 12:11:24 10° SW 12:17:02 61° NW 12:23:19 10° NNE
Cosmos 2016 Rocket 4.4 12:11:58 10° NNW 12:17:45 38° W 12:23:28 10° SSW
BREEZE-M DEB (TANK) 2.9 12:16:52 17° SSW 12:18:46 49° SE 12:21:01 10° ENE
Cosmos 2369 Rocket 3.7 12:13:47 10° N 12:19:00 36° ENE 12:24:11 10° SE
Cosmos 1782 Rocket 4.1 12:19:10 32° WNW 12:19:43 33° W 12:23:36 10° SSW
Helios 1A Rocket 3.3 12:18:43 10° SSE 12:21:59 50° ENE 12:25:15 10° N
IRS-1D 3.4 12:19:01 10° N 12:23:51 59° WNW 12:28:41 10° SSW
Cosmos 1869 2.8 12:21:46 12° NNW 12:24:56 68° W 12:28:24 10° S
USA 267 4.3 12:20:14 10° NNE 12:25:29 27° NNW 12:28:15 20° WNW
Iridium 4 Rocket 4.0 12:27:17 24° W 12:27:17 24° W 12:30:04 10° SW
Cosmos 1812 2.0 12:26:06 10° N 12:28:59 78° E 12:31:51 10° S
Cosmos 371 Rocket 3.2 12:25:00 10° NNW 12:29:51 80° WSW 12:34:39 10° SSE
Cosmos 304 Rocket 3.7 12:32:31 10° NNW 12:37:14 63° WSW 12:41:55 10° S
ATLAS 3B R/B 3.1 12:30:39 10° SW 12:37:45 49° NW 12:45:18 10° NNE
CZ-4 R/B 4.0 12:33:14 10° N 12:37:49 45° WNW 12:42:16 10° SW
Cosmos 2151 Rocket 4.3 12:34:11 10° N 12:38:35 55° E 12:42:55 10° SSE
Cosmos 1110 Rocket 4.0 12:35:14 10° SSW 12:40:26 63° WNW 12:45:42 10° N
Cosmos 1378 Rocket 3.6 12:36:48 10° SSW 12:40:57 52° W 12:45:07 10° N
Meteor 1-21 Rocket 4.3 12:36:21 10° SSW 12:41:58 54° W 12:47:31 10° N
Delta 142 4.4 12:39:23 14° WSW 12:42:33 36° S 12:46:22 10° ESE
Cosmos 2242 Rocket 4.4 12:41:39 10° SW 12:45:26 28° WNW 12:49:15 10° NNW
CENTAUR R/B 4.0 12:38:28 10° NNW 12:47:01 58° NE 12:56:20 10° SE
NOSS 7 (E) 4.4 12:46:40 11° NW 12:49:43 75° WSW 12:53:38 10° SSE
Cosmos 1818 3.9 12:47:26 10° SSW 12:52:47 71° ESE 12:58:12 10° NNE
Cosmos 1656 Rocket 3.9 12:49:02 10° NNW 12:54:32 53° WSW 12:59:59 10° S
Okean 1 Rocket 3.9 12:51:09 10° N 12:55:22 52° E 12:59:32 10° SSE
USA 234 3.5 12:51:39 10° SE 12:58:10 74° NE 13:04:43 10° NW
Cosmos 1441 Rocket 4.4 12:55:18 10° SSE 12:58:27 40° E 13:01:36 10° NNE
Meteor 2-17 Rocket 4.4 12:56:44 10° SSW 13:02:44 71° W 13:08:49 10° N
SL-16 R/B 3.4 13:03:24 10° WSW 13:07:27 20° WNW 13:11:31 10° NNW
IGS 5A 3.3 13:04:19 10° N 13:08:20 81° WNW 13:12:19 10° SSW
Cosmos 1452 Rocket 3.9 13:09:13 10° SW 13:14:07 41° WNW 13:19:03 10° N
